This is the latest recevied weather packets stored in our database for station/object N9WHM. If no packets are shown the sender has not sent any weather packets the latest 10 day(s).
| Time | Temp. | Humidity | Pressure | Rain* | Wind** | Luminosity | Snow |
|---|---|---|---|---|---|---|---|
| 1777767715 | 20° C | 26% | 1013.6 hPa | 0 mm | - | 63 W/m² | - |
| 1777767411 | 20° C | 26% | 1013.5 hPa | 0 mm | - | 84 W/m² | - |
| 1777767108 | 20° C | 26% | 1013.7 hPa | 0 mm | - | 47 W/m² | - |
| 1777766503 | 20.56° C | 24% | 1013.8 hPa | 0 mm | - | 101 W/m² | - |
| 1777766200 | 20.56° C | 25% | 1013.8 hPa | 0 mm | - | 116 W/m² | - |
| 1777765898 | 20.56° C | 24% | 1013.7 hPa | 0 mm | - | 53 W/m² | - |
| 1777765593 | 20.56° C | 24% | 1013.8 hPa | 0 mm | - | 133 W/m² | - |
| 1777764987 | 20.56° C | 25% | 1013.9 hPa | 0 mm | - | 162 W/m² | - |
| 1777764684 | 20.56° C | 26% | 1014 hPa | 0 mm | - | 174 W/m² | - |
| 1777764379 | 20.56° C | 25% | 1014.1 hPa | 0 mm | - | 186 W/m² | - |
| 1777763774 | 20.56° C | 25% | 1014.2 hPa | 0 mm | - | 217 W/m² | - |
| 1777763472 | 20.56° C | 25% | 1014.1 hPa | 0 mm | - | 194 W/m² | - |
| 1777761654 | 20.56° C | 24% | 1014.9 hPa | 0 mm | - | 315 W/m² | - |
| 1777761351 | 20.56° C | 24% | 1014.9 hPa | 0 mm | - | 332 W/m² | - |
| 1777761050 | 20.56° C | 25% | 1015 hPa | 0 mm | - | 348 W/m² | - |
| 1777760747 | 20.56° C | 26% | 1014.8 hPa | 0 mm | - | 362 W/m² | - |
| 1777760443 | 20.56° C | 25% | 1015 hPa | 0 mm | - | 376 W/m² | - |
| 1777760138 | 20.56° C | 26% | 1014.9 hPa | 0 mm | - | 391 W/m² | - |
| 1777759836 | 20.56° C | 26% | 1015 hPa | 0 mm | - | 406 W/m² | - |
| 1777759532 | 20.56° C | 25% | 1015.3 hPa | 0 mm | - | 419 W/m² | - |
| 1777759229 | 20.56° C | 25% | 1015.2 hPa | 0 mm | - | 432 W/m² | - |
| 1777758926 | 20.56° C | 26% | 1015.3 hPa | 0 mm | - | 449 W/m² | - |
| 1777758623 | 20.56° C | 25% | 1015.5 hPa | 0 mm | - | 461 W/m² | - |
| 1777758320 | 20.56° C | 27% | 1015.4 hPa | 0 mm | - | 475 W/m² | - |
| 1777757714 | 20.56° C | 25% | 1015.4 hPa | 0 mm | - | 502 W/m² | - |
* Rain latest hour (hover to see other rain measurements)
** Current wind speed in m/s (hover to see current wind gust speed)